Regional Weather Roundup
Issued by NWS

Home | Current Version | Previous Version | Text Only | Print | Product List | Glossary On
Versions: 1 2 3 4 5 6 7 8 9 10 11 12 13 14 15 16 17 18 19 20 21 22 23 24 25 26 27 28 29 30 31 32 33 34 35 36 37 38 39 40 41 42 43 44 45 46 47 48 49 50
903
ASUS45 KPSR 260210
RWRAZ

ARIZONA HOURLY REGIONAL WEATHER ROUNDUP
NATIONAL WEATHER SERVICE PHOENIX AZ
700 PM MST MON JUL 25 2016

NOTE: FAIR INDICATES FEW OR NO CLOUDS BELOW 12,000 FEET WITH NO
SIGNIFICANT WEATHER AND/OR OBSTRUCTIONS TO VISIBILITY.

AZZ001>003-036-260300-
NORTHWEST ARIZONA

CITY           SKY/WX    TMP DP  RH WIND       PRES   REMARKS
BULLHEAD CITY  CLEAR    109  48  13 SE8       29.71R HX 106
KINGMAN        PTCLDY    90  57  32 E25       29.99R
$$

AZZ004>008-015-016-018-260300-
NORTH CENTRAL ARIZONA

CITY           SKY/WX    TMP DP  RH WIND       PRES   REMARKS
GRAND CANYON   CLOUDY    75  43  31 S8        30.28R
WILLIAMS       CLOUDY    61  55  82 SE13G22   30.40R
PRESCOTT       TSTM      66  61  84 NW13      30.25S
FLAGSTAFF      CLOUDY    57  55  93 VRB6      30.35F
PAYSON         CLOUDY    73  59  60 NW3       30.19R
PAGE           CLOUDY    98  42  14 NE7       30.00S
$$

AZZ009>014-017-260300-
NORTHEAST ARIZONA

CITY           SKY/WX    TMP DP  RH WIND       PRES   REMARKS
WINSLOW        CLOUDY    81  49  32 W22G35    30.12S
SAINT JOHNS    MOCLDY    81  50  33 NE15      30.19R
WINDOW ROCK    CLOUDY    73  53  49 S10       30.30F
SHOW LOW       CLOUDY    75  48  38 W6        30.26S
$$

AZZ023-260300-
GREATER PHOENIX AREA

CITY           SKY/WX    TMP DP  RH WIND       PRES   REMARKS
PHOENIX        PTCLDY   103  59  23 NW13      29.77R HX 103
BUCKEYE        PTCLDY   102  59  24 SE8       29.79R HX 102
GLENDALE       PTCLDY   100  55  22 N22G29    29.81R
LUKE AFB       CLEAR     99  58  26 N15       29.80R
DEER VALLEY    CLEAR     96  55  25 N26G32    29.81R
SCOTTSDALE     PTCLDY   100  58  24 NW7       29.83R
MESA-FALCON    PTCLDY   N/A N/A N/A N17G23    29.79R
MESA-GATEWAY   MOCLDY   102  57  22 W5        29.82R HX 101
CHANDLER       PTCLDY   104  55  20 VRB6      29.79R HX 103
$$

AZZ027-028-260300-
SOUTHWEST MARICOPA COUNTY AND PINAL COUNTY

CITY           SKY/WX    TMP DP  RH WIND       PRES   REMARKS
CASA GRANDE    CLEAR    102  57  22 W8        29.84R HX 101
GILA BEND      PTCLDY   106  52  17 W3        29.76R HX 103
$$

AZZ503-504-507>509-260300-
SOUTHEAST ARIZONA

CITY           SKY/WX    TMP DP  RH WIND       PRES   REMARKS
TUCSON         CLEAR     99  57  24 N13       29.91R
DAVIS-MONTHAN  MOCLDY    98  58  26 N16       29.90R
RYAN FIELD     CLEAR     99  57  25 NW10      29.90R
NOGALES        PTCLDY    92  55  28 W6        30.00R
SIERRA VISTA   CLEAR     89  53  28 E5        30.09R
DOUGLAS        CLEAR     86  63  45 NW5       30.03R
SAFFORD        CLEAR     96  55  25 W15       29.91R
$$

AZZ020-021-025-026-031-260300-
SOUTHWEST ARIZONA

CITY           SKY/WX    TMP DP  RH WIND       PRES   REMARKS
YUMA           NOT AVBL
$$

CAZ031-033-041-043-047-048-061-260300-
SOUTHERN CALIFORNIA

CITY           SKY/WX    TMP DP  RH WIND       PRES   REMARKS
DOWNTOWN L.A.  SUNNY     78  62  57 VRB5      29.86R
L.A. AIRPORT   MOSUNNY   74  66  76 W14       29.87S
SAN DIEGO      PTCLDY    72  65  78 NW8       29.90S
BURBANK        SUNNY     85  53  33 S10       29.86S
ONTARIO        PTSUNNY   88  52  29 W12       29.87R
RIVERSIDE      PTCLDY    90  44  20 W12       29.86R
PALM SPRINGS   PTCLDY   106  52  16 NW6       29.74S HX 103
EL CENTRO NAS  PTCLDY   108  61  21 E5        29.71S HX 110
IMPERIAL       CLEAR    108  66  25 VRB3      29.68S HX 113
BLYTHE         CLEAR    110  56  17 SW8       29.71R HX 109
NEEDLES        MOCLDY   111  51  13 CALM      29.73S HX 108
$$

NVZ020-UTZ003-260300-
SOUTHERN NEVADA-UTAH

CITY           SKY/WX    TMP DP  RH WIND       PRES   REMARKS
LAS VEGAS      PTCLDY   108  34   8 S7        29.77R HX 101
SALT LAKE CITY PTCLDY    97  34  11 N8        29.98S
$$

NMZ009-TXZ055-260300-
NEW MEXICO-WEST TEXAS

CITY           SKY/WX    TMP DP  RH WIND       PRES   REMARKS
ALBUQUERQUE    CLOUDY    80  54  40 W17       30.19S
EL PASO        PTCLDY    96  44  16 E13G18    29.97R
$$


........................KEY........................
SKY/WX - SKY CONDITION/WEATHER
TMP    - TEMPERATURE IN FAHRENHEIT
DP     - DEW POINT IN FAHRENHEIT
RH     - RELATIVE HUMIDITY IN PERCENT
WIND   - DIRECTION AND SPEED IN MILES PER HOUR (MPH)
VRB    - VARIABLE WIND DIRECTION
PRES   - MEAN SEA LEVEL PRESSURE IN INCHES OF MERCURY
         F - FALLING PRESSURE   R - RISING PRESSURE
         S - STEADY PRESSURE
VSB    - VISIBILITY IN MILES
HX     - HEAT INDEX IN FAHRENHEIT
WCI    - WIND CHILL INDEX IN FAHRENHEIT
TC     - TEMPERATURE IN CELSIUS WHICH IS ALSO KNOWN AS
         TEMPERATURE IN CENTIGRADE
AFB    - AIR FORCE BASE
         LUKE AFB IS LUKE AIR FORCE BASE
         DAVIS-MONTHAN IS DAVIS-MONTHAN AIR FORCE BASE
NAS    - NAVAL AIR STATION
         EL CENTRO NAS IS EL CENTRO NAVAL AIR STATION
N/A    - NOT AVAILABLE





USA.gov is the U.S. government's official web portal to all federal, state and local government web resources and services.